Regional Weather Roundup
Issued by NWS Sioux Falls, SD

Home | Current Version | Previous Version | Graphics & Text | Print | Product List | Glossary Off
Versions: 1 2 3 4 5 6 7 8 9 10 11 12 13 14 15 16 17 18 19 20 21 22 23 24 25 26 27 28 29 30 31 32 33 34 35 36 37 38 39 40 41 42 43 44 45 46 47 48 49 50

000
ASUS43 KFSD 270402
RWRFSD

WEATHER ROUNDUP FOR SE SOUTH DAKOTA/SW MINNESOTA/NW IOWA
NATIONAL WEATHER SERVICE SIOUX FALLS SD
1000 PM CST MON JAN 26 2015

NOTE: "FAIR" INDICATES FEW OR NO CLOUDS BELOW 12,000 FEET WITH NO
SIGNIFICANT WEATHER AND OR OBSTRUCTIONS TO VISIBILITY.


SDZ038>040-050-052>070-270500-
SOUTHEAST SOUTH DAKOTA

CITY           SKY/WX    TMP DP  RH WIND       PRES   REMARKS
CHAMBERLAIN    NOT AVBL
HURON          PTCLDY    30  29  96 NW3       30.02R
MADISON        FAIR      32  32 100 N9        30.00S WCI  24
MITCHELL       PTCLDY    32  29  88 NW7       30.03R WCI  26
SIOUX FALLS    PTCLDY    33  31  92 CALM      30.01R
WINNER         FAIR      38  29  70 S7        30.01S
YANKTON        CLEAR     37  34  87 W7        30.04R
$$

MNZ071-072-080-081-089-090-097-098-270500-
SOUTHWEST MINNESOTA

CITY           SKY/WX    TMP DP  RH WIND       PRES   REMARKS
FAIRMONT       CLOUDY    36  28  75 NW14      29.96R
JACKSON        CLEAR     34  32  93 NW9       29.98R WCI  26
LUVERNE        CLEAR     34  32  93 NW5       30.01R WCI  30
MARSHALL       CLEAR     34  28  80 N9        30.01R WCI  26
MONTEVIDEO     CLEAR     32  30  93 N8        30.01R WCI  25
PIPESTONE      CLEAR     34  32  93 NW7       29.99R WCI  28
REDWOOD FALLS  CLEAR     34  29  82 NW10      29.98R WCI  26
TRACY          CLEAR     35  32  91 NW8       29.99S WCI  28
WINDOM         CLEAR     36  34  93 NW14      29.97S
WORTHINGTON    CLEAR     34  28  80 NW10      29.99R WCI  26
$$

IAZ001>003-012>014-020>022-031-032-NEZ013-014-SDZ071-270500-
NORTHWEST IOWA

CITY           SKY/WX    TMP DP  RH WIND       PRES   REMARKS
ESTHERVILLE    CLEAR     33  31  92 NW8       29.97R WCI  26
SIOUX CITY     PTCLDY    39  33  79 NW8       30.03R
SPENCER        CLEAR     33  29  85 NW9       29.98R WCI  25
$$

ABBREVIATIONS USED IN REMARKS
   TC - TEMPERATURE IN CELSIUS
  WCI - WIND CHILL INDEX
   HX - HEAT INDEX
  VSB - VISIBILITY



USA.gov is the U.S. government's official web portal to all federal, state and local government web resources and services.